Jordan Valley, OR

2:07 AM MDT on August 29, 2016 (GMT -0600)
Rome State

Weather History for KREO - July, 2013

Change the Weather History Date:

Friday, July 19, 2013

  Actual Average Record
Temperature  
Mean Temperature 82 °F 72 °F  
Max Temperature 103 °F 92 °F 111 °F (1960)
Min Temperature 60 °F 52 °F 43 °F (2001)
Degree Days  
Heating Degree Days 0 0  
Month to date heating degree days 0 11  
Since 1 June heating degree days 94 136  
Since 1 July heating degree days 0 11  
Cooling Degree Days 17 8  
Month to date cooling degree days 240 123  
Year to date cooling degree days 398 195  
Since 1 June cooling degree days 376 185  
Growing Degree Days 30 (Base 50)    
Moisture  
Dew Point 24 °F    
Average Humidity 16    
Maximum Humidity 27    
Minimum Humidity 5    
Precipitation  
Precipitation 0.00 in 0.01 in 0.53 in (2004)
Month to date precipitation 0.41 0.22  
Year to date precipitation 3.03 5.84  
Sea Level Pressure  
Sea Level Pressure 29.89 in    
Wind  
Wind Speed 6 mph (NNE)    
Max Wind Speed 12 mph    
Max Gust Speed -    
T = Trace of Precipitation, MM = Missing Value Source: NWS Daily Summary

Daily Weather History Graph

Daily Weather History Graph

Search for Another Location

Airport or City:

Trip Planner

Search our weather history database for the weather conditions in past years. The results will help you decide how hot, cold, wet, or windy it might be!

Date:

Astronomy

Jul. 19, 2013 Rise Set
Actual Time 5:31 AM PDT 8:24 PM PDT
Civil Twilight 4:57 AM PDT 8:57 PM PDT
Nautical Twilight 4:15 AM PDT 9:39 PM PDT
Astronomical Twilight 3:26 AM PDT 10:28 PM PDT
Moon 5:31 PM PDT (7/19) 2:16 AM PDT (7/19)
Length of Visible Light 15h 59m
Length of Day
14h 52m
Waxing Gibbous, 87% of the Moon is Illuminated
Jul 19
Waxing Gibbous
Jul 22
Full
Jul 29
Last Quarter
Aug 6
New
Aug 14
First Quarter

Hourly Weather History & Observations

Time (PDT) Temp. Dew Point Humidity Pressure Visibility Wind Dir Wind Speed Gust Speed Precip Events Conditions
12:52 AM 68.0 °F 28.0 °F 22% 29.94 in - NNE 6.9 mph - N/A   Unknown
1:52 AM 68.0 °F 26.1 °F 21% 29.94 in - NE 5.8 mph - N/A   Unknown
2:52 AM 64.9 °F 26.1 °F 23% 29.94 in - NE 8.1 mph - N/A   Unknown
3:52 AM 68.0 °F 27.0 °F 21% 29.94 in - NE 6.9 mph - N/A   Unknown
4:52 AM 61.0 °F 26.1 °F 26% 29.96 in - NNE 5.8 mph - N/A   Unknown
5:52 AM 63.0 °F 26.1 °F 25% 29.96 in - NNE 5.8 mph - N/A   Unknown
6:52 AM 68.0 °F 28.9 °F 23% 29.97 in - Calm Calm - N/A   Unknown
7:52 AM 77.0 °F 28.0 °F 17% 29.96 in - North 5.8 mph - N/A   Unknown
8:52 AM 80.1 °F 32.0 °F 17% 29.97 in - North 8.1 mph - N/A   Unknown
9:52 AM 84.9 °F 30.9 °F 14% 29.96 in - NNW 8.1 mph - N/A   Unknown
10:52 AM 89.1 °F 30.0 °F 12% 29.94 in - Variable 3.5 mph - N/A   Unknown
11:52 AM 93.0 °F 25.0 °F 9% 29.92 in - Variable 3.5 mph - N/A   Unknown
12:52 PM 97.0 °F 23.0 °F 7% 29.89 in - NNE 9.2 mph - N/A   Unknown
1:52 PM 99.0 °F 21.0 °F 6% 29.87 in - Calm Calm - N/A   Unknown
2:52 PM 100.0 °F 17.1 °F 5% 29.85 in - Variable 4.6 mph - N/A   Unknown
3:52 PM 99.0 °F 15.1 °F 5% 29.82 in - Calm Calm - N/A   Unknown
4:52 PM 100.0 °F 17.1 °F 5% 29.82 in - Calm Calm - N/A   Unknown
5:52 PM 100.9 °F 17.1 °F 5% 29.79 in - Variable 6.9 mph - N/A   Unknown
6:52 PM 100.0 °F 16.0 °F 5% 29.78 in - WNW 11.5 mph - N/A   Unknown
7:52 PM 96.1 °F 19.9 °F 6% 29.78 in - NW 8.1 mph - N/A   Unknown
8:52 PM 86.0 °F 19.9 °F 9% 29.81 in - NNE 9.2 mph - N/A   Unknown
9:52 PM 78.1 °F 21.0 °F 12% 29.83 in - ENE 5.8 mph - N/A   Unknown
10:52 PM 80.1 °F 25.0 °F 13% 29.83 in - North 11.5 mph - N/A   Unknown
11:52 PM 75.9 °F 27.0 °F 16% 29.85 in - North 9.2 mph - N/A   Unknown